Location: Gildersleeve Park For Mobile Homes
(40.6947°N, 73.4258°W)
Time: 13:52:17
(UTC+00:00)

Daily predictions for brighter satellites

Satellite Brightness Start Highest point End
(mag) Time Altitude Azimuth Time Altitude Azimuth Time Altitude Azimuth
Cosmos 1733 Rocket 3.3 21:51:09 10° N 21:55:34 79° W 21:59:57 10° S
STARLINK-43 4.1 21:52:32 10° SSW 21:56:00 38° SE 21:59:28 10° ENE
Cosmos 2237 Rocket 2.6 21:52:01 10° SSW 21:57:40 69° WNW 22:03:23 10° NNE
NOSS 7 (D) 4.4 21:54:36 10° NW 21:57:42 79° WSW 22:01:15 10° SSE
CZ-4 R/B 3.2 21:59:16 10° ENE 22:00:12 11° ENE 22:01:08 10° NE
CZ-4B R/B 4.0 21:58:22 10° NNW 22:00:57 20° WNW 22:03:30 10° WSW
Cosmos 921 Rocket 3.8 21:59:28 10° N 22:03:15 29° ENE 22:07:03 10° SE
Cosmos 614 Rocket 4.4 21:58:47 10° S 22:03:32 41° ESE 22:08:17 10° NNE
Cosmos 2333 Rocket 4.1 22:00:02 10° WSW 22:04:41 25° NW 22:09:23 10° N
COBE Rocket 3.9 22:00:52 10° NNE 22:05:29 57° E 22:10:09 10° S
OAO 3 Rocket 4.2 22:01:16 10° WSW 22:05:39 41° S 22:10:06 10° ESE
Cosmos 2219 Rocket 4.1 22:01:21 10° WSW 22:05:50 24° NW 22:10:22 10° N
Aureole 1 Rocket 2.1 22:04:00 10° SSW 22:06:57 82° ESE 22:10:11 10° NNE
Cosmos 1943 Rocket 3.5 22:07:33 10° N 22:11:16 18° NE 22:14:57 10° E
AQUARIUS 4.2 22:08:22 10° SSE 22:12:47 60° ENE 22:17:13 10° N
Cosmos 1174 4.2 22:08:56 10° SSW 22:14:12 82° ESE 22:18:22 10° NNE
H-2A R/B 2.6 22:11:32 10° SSE 22:15:10 62° ENE 22:18:49 10° N
OAO 2 Rocket 4.4 22:11:49 10° WSW 22:16:27 40° S 22:21:08 10° ESE
Cosmos 1441 Rocket 3.5 22:13:17 10° N 22:16:54 41° ENE 22:20:27 10° SSE
Nadezhda 4 Rocket 4.4 22:12:21 10° SSW 22:18:39 72° W 22:24:58 10° N
Cosmos 1975 4.2 22:17:24 10° NNE 22:20:18 19° ENE 22:23:11 10° ESE
USA 215 3.8 22:14:30 10° NE 22:20:51 55° NW 22:27:11 10° WSW
Shenzhou-11 Module 2.8 22:22:08 10° W 22:24:46 44° SSW 22:27:23 10° SE
SMAP 3.1 22:20:11 10° SSE 22:24:50 89° ENE 22:29:31 10° NNW
Genesis I 3.0 22:23:18 10° NNW 22:27:11 75° ENE 22:31:00 10° SE
Cosmos 1140 Rocket 3.8 22:23:14 10° S 22:28:05 45° ESE 22:32:59 10° NNE
Abrixas rocket 2.6 22:25:26 10° SW 22:28:18 42° SE 22:30:01 20° E
Cosmos 1782 Rocket 3.7 22:25:59 10° N 22:30:13 50° E 22:34:25 10° SSE
CZ-4C R/B 3.5 22:27:03 10° SSE 22:30:14 17° ESE 22:31:50 15° E
Envisat 3.1 22:26:11 10° SSE 22:31:06 53° ENE 22:36:03 10° N
SKYMED 2 4.2 22:27:50 10° NNE 22:31:52 36° E 22:35:51 10° SSE
Cosmos 1553 Rocket 4.5 22:26:54 10° N 22:32:49 38° ENE 22:38:43 10° SE
Cosmos 1666 2.8 22:29:13 10° N 22:32:57 76° W 22:36:40 10° S
Cosmos 1703 Rocket 3.7 22:34:00 10° S 22:38:28 80° W 22:42:58 10° N
Cosmos 2026 Rocket 3.9 22:33:58 10° S 22:40:00 76° E 22:46:04 10° N
Cosmos 407 Rocket 3.5 22:35:00 10° SSW 22:40:10 88° ESE 22:45:28 10° NNE
Okean 2 Rocket 3.8 22:38:34 10° NNE 22:42:33 30° ENE 22:46:32 10° SE
Cosmos 2221 Rocket 4.0 22:39:10 10° SSE 22:43:19 39° E 22:46:40 14° NNE
Cosmos 2297 3.6 22:37:42 10° NNW 22:43:25 81° ENE 22:49:04 10° SSE
Sich 1 Rocket 3.5 22:42:16 10° N 22:46:36 57° E 22:50:54 10° SSE
YAOGAN 6 2.7 22:43:49 10° SSE 22:47:12 46° ENE 22:50:40 10° N
NOAA 12 4.1 22:41:59 10° SSE 22:47:17 89° ENE 22:52:36 10° NNW
STARLINK-48 3.9 22:44:51 10° SSW 22:48:34 46° SE 22:50:06 29° E
USA 267 3.2 22:46:49 10° SE 22:53:21 81° NE 22:59:55 10° NW
CZ-4 R/B 4.3 22:59:16 10° SSE 23:03:23 65° ENE 23:07:30 10° N
Cosmos 1417 Rocket 4.4 22:58:34 10° N 23:04:40 64° E 23:10:46 10° SSE
USA 229 DEB 4.4 23:00:40 10° NNW 23:07:15 36° NE 23:09:46 29° E
USA 229 4.4 23:00:47 10° NNW 23:07:20 35° NE 23:09:47 29° ENE
Cosmos 1743 2.9 23:04:31 10° NNW 23:08:22 71° W 23:12:14 10° S
Meteor 2-9 Rocket 4.2 23:04:36 10° N 23:10:25 62° ENE 23:16:05 10° SSE
NOAA 11 4.4 23:05:48 10° SE 23:10:57 45° ENE 23:16:08 10° N
STARLINK-61 4.5 23:07:43 10° SSW 23:11:14 31° SE 23:11:14 31° SE
Okean 1-7 4.4 23:07:34 10° SSW 23:11:38 39° WNW 23:15:46 10° N
Cosmos 1943 3.6 23:10:04 10° S 23:15:17 40° ESE 23:16:07 38° E
Okean-O 3.8 23:13:54 10° S 23:18:07 44° W 23:22:23 10° NNW
SL-4 R/B 3.7 23:15:30 10° NW 23:17:48 20° N 23:17:48 20° N
Okean 1 4.5 23:16:07 10° SSW 23:19:54 42° W 23:23:43 10° N
COSMO-SKYMED 1 2.9 23:15:59 12° N 23:19:56 64° WNW 23:24:13 10° SSW
Delta 2 Rocket 4.3 23:15:05 10° WSW 23:19:57 45° S 23:21:18 35° SE
YAOGAN 1 2.4 23:16:56 10° SSE 23:21:13 72° ENE 23:25:33 10° N
Cosmos 1867 3.5 23:15:46 10° NNW 23:21:15 89° SW 23:26:41 10° SSE
Cosmos 1241 Rocket 4.5 23:15:22 10° SSW 23:21:45 84° WNW 23:25:33 26° NNE
Lacrosse 5 1.8 23:21:35 10° SSW 23:26:38 65° SE 23:27:27 55° E
Cosmos 1655 Rocket 3.9 23:24:03 10° S 23:30:22 90° SSW 23:36:40 10° N
Cosmos 2369 Rocket 2.2 23:24:51 10° NNW 23:30:25 57° ENE 23:31:27 49° ESE
SL-16 R/B 3.8 23:28:46 10° WSW 23:33:47 32° WNW 23:38:48 10° N
CZ-4 R/B 1.8 23:30:55 10° S 23:34:44 57° W 23:38:32 10° NNW
Meteor 2-13 Rocket 4.4 23:31:47 10° S 23:37:50 80° W 23:43:57 10° N
CZ-3B R/B 3.8 23:34:52 10° SSW 23:38:24 17° SSE 23:39:07 17° SE
Cosmos 1603 3.6 23:34:57 10° SSW 23:40:40 89° ESE 23:42:25 47° NNE
DMSP B5D1-3 4.3 23:41:51 59° NNE 23:42:51 83° ESE 23:47:57 10° SSW
Okean 3 4.2 23:42:15 10° SSW 23:46:19 51° W 23:47:24 39° NNW
IRIDIUM 104 4.4 23:47:20 10° S 23:52:31 75° W 23:54:44 35° N
